Back to catalog

ATLAS 5 CENTAUR DEB

AliveHEO
NORAD 46602·DEBRIS·🇺🇸 United States

Launched Oct 17, 2018 from Cape Canaveral Space Force Station

Loading…

Next Passes (next 24 hours)

TLE

FreshSource: Space-Track

Epoch: Sep 8, 2026, 11:56 UTC

1 46602U 18079CA  26251.49743763 -.00000178  00000-0  00000-0 0  9999
2 46602  13.5966  32.3140 4672383 315.5819  15.1666  1.79049432 41478

Track ATLAS 5 CENTAUR DEB in real time with AllMySat

Download on the App Store